Flag for U.S.A. Weather past 2 weeks in New York, New York, U.S.A.

Now
71 °F

Sunny.


Feels Like: 77 °F
Forecast: 59 / 75 °F
Wind: N/A

Location: New York City - Central Park

Current Time: Sep 20, 2014 at 7:11:11 PM

Latest Report: Sep 20, 2014 at 5:51 PM


Visibility: 10 mi

Pressure: 30.14 "Hg

Humidity: 55%

Dew point: 54 °F

Location of New YorkLocation

Historic Weather in New York — Graph

°F

New York temperature yesterday

Maximum temperature yesterday: 66 °F (at 2:51 PM)
Minimum temperature yesterday: 54 °F (at 7:51 AM)
Average temperature yesterday: 61 °F

Past Weeks' High & Low Weather Summary

 TemperatureHumidityPressure
High90 °F (Sep 6, 1:51 PM)93% (Sep 13, 3:51 PM)30.38 "Hg (Sep 13, 3:51 PM)
Low53 °F (Sep 14, 6:51 AM)31% (Sep 18, 5:51 PM)29.81 "Hg (Sep 11, 3:51 PM)
Average68 °F62%30.11 "Hg
* Reported Sep 5 5:51 PM — Sep 20 5:51 PM, New York, Weather by CustomWeather, © 2014

Note: Actual official high and low records may vary slightly from our data, if they occured in-between our weather recording intervals... More about our weather records

Advertising

New York weather history for previous 24 hours

 ConditionsComfort  
Time TempWeatherWind HumidityBarometerVisibility
5:51 PM
Sep 20
71 °FSunny.N/A55%30.14 "Hg10 mi
4:51 PM72 °FScattered clouds.9 mph61%30.16 "Hg10 mi
3:51 PM72 °FPartly sunny.6 mph61%30.17 "Hg10 mi
2:51 PM72 °FScattered clouds.N/A59%30.18 "Hg10 mi
1:51 PM73 °FPassing clouds.7 mph57%30.20 "Hg10 mi
8:51 AM64 °FScattered clouds.3 mph70%30.29 "Hg9 mi
7:51 AM62 °FOvercast.No wind73%30.29 "Hg9 mi
6:51 AM60 °FPassing clouds.No wind75%30.31 "Hg10 mi
5:51 AM59 °FPassing clouds.No wind78%30.31 "Hg10 mi
4:51 AM58 °FPassing clouds.No wind78%30.32 "Hg10 mi
3:51 AM58 °FPassing clouds.No wind75%30.32 "Hg10 mi
2:51 AM59 °FPassing clouds.No wind69%30.32 "Hg10 mi
1:51 AM59 °FClear.3 mph67%30.32 "Hg10 mi
12:51 AM60 °FClear.5 mph62%30.33 "Hg10 mi
11:51 PM
Sep 19
60 °FClear.3 mph60%30.35 "Hg10 mi
10:51 PM61 °FPassing clouds.7 mph58%30.37 "Hg10 mi
9:51 PM61 °FOvercast.8 mph58%30.38 "Hg10 mi
8:51 PM60 °FPassing clouds.3 mph60%30.37 "Hg10 mi
7:51 PM61 °FPartly sunny.5 mph58%30.37 "Hg10 mi
Weather by CustomWeather, © 2014

See weather overviewHow to use our weather pages